Time,TemperatureF,DewpointF,PressureIn,WindDirection,WindDirectionDegrees,WindSpeedMPH,WindSpeedGustMPH,Humidity,HourlyPrecipIn,Conditions,Clouds,dailyrainin,SoftwareType,DateUTC
2013-03-22 00:00:00,15.0,4.0,-100.00,North,-999,-999.0,-999.0,61,-99.99,,,-99.99,,2013-03-22 06:00:00,
2013-03-22 00:32:00,15.0,4.0,-100.00,North,-999,-999.0,-999.0,61,-99.99,,,-99.99,,2013-03-22 06:32:00,
2013-03-22 00:43:00,15.0,4.0,-100.00,North,-999,-999.0,-999.0,61,-99.99,,,-99.99,,2013-03-22 06:43:00,
2013-03-22 00:52:00,15.0,4.0,-100.00,North,-999,-999.0,-999.0,61,-99.99,,,-99.99,,2013-03-22 06:52:00,
2013-03-22 01:00:00,13.0,4.0,-100.00,North,-999,-999.0,-999.0,65,-99.99,,,-99.99,,2013-03-22 07:00:00,
2013-03-22 01:32:00,13.0,4.0,-100.00,North,-999,-999.0,-999.0,65,-99.99,,,-99.99,,2013-03-22 07:32:00,
2013-03-22 01:42:00,13.0,4.0,-100.00,North,-999,-999.0,-999.0,65,-99.99,,,-99.99,,2013-03-22 07:42:00,
2013-03-22 01:52:00,13.0,4.0,-100.00,North,-999,-999.0,-999.0,65,-99.99,,,-99.99,,2013-03-22 07:52:00,
2013-03-22 02:00:00,12.0,4.0,-100.00,North,-999,-999.0,-999.0,68,-99.99,,,-99.99,,2013-03-22 08:00:00,
2013-03-22 02:32:00,12.0,4.0,-100.00,North,-999,-999.0,-999.0,68,-99.99,,,-99.99,,2013-03-22 08:32:00,
2013-03-22 02:42:00,12.0,4.0,-100.00,North,-999,-999.0,-999.0,68,-99.99,,,-99.99,,2013-03-22 08:42:00,
2013-03-22 02:52:00,12.0,4.0,-100.00,North,-999,-999.0,-999.0,68,-99.99,,,-99.99,,2013-03-22 08:52:00,
2013-03-22 03:00:00,12.0,6.0,-100.00,North,-999,-999.0,-999.0,74,-99.99,,,-99.99,,2013-03-22 09:00:00,
2013-03-22 03:33:00,12.0,6.0,-100.00,North,-999,-999.0,-999.0,74,-99.99,,,-99.99,,2013-03-22 09:33:00,
2013-03-22 03:42:00,12.0,6.0,-100.00,North,-999,-999.0,-999.0,74,-99.99,,,-99.99,,2013-03-22 09:42:00,
2013-03-22 03:53:00,12.0,6.0,-100.00,North,-999,-999.0,-999.0,74,-99.99,,,-99.99,,2013-03-22 09:53:00,
2013-03-22 05:00:00,11.0,8.0,-100.00,North,-999,-999.0,-999.0,90,-99.99,,,-99.99,,2013-03-22 11:00:00,
2013-03-22 05:33:00,11.0,8.0,-100.00,North,-999,-999.0,-999.0,90,-99.99,,,-99.99,,2013-03-22 11:33:00,
2013-03-22 05:42:00,11.0,8.0,-100.00,North,-999,-999.0,-999.0,90,-99.99,,,-99.99,,2013-03-22 11:42:00,
2013-03-22 05:52:00,11.0,8.0,-100.00,North,-999,-999.0,-999.0,90,-99.99,,,-99.99,,2013-03-22 11:52:00,
2013-03-22 06:00:00,10.0,7.0,-100.00,North,-999,-999.0,-999.0,87,-99.99,,,-99.99,,2013-03-22 12:00:00,
2013-03-22 06:32:00,10.0,7.0,-100.00,North,-999,-999.0,-999.0,87,-99.99,,,-99.99,,2013-03-22 12:32:00,
2013-03-22 06:42:00,10.0,7.0,-100.00,North,-999,-999.0,-999.0,87,-99.99,,,-99.99,,2013-03-22 12:42:00,
2013-03-22 06:52:00,10.0,7.0,-100.00,North,-999,-999.0,-999.0,87,-99.99,,,-99.99,,2013-03-22 12:52:00,
2013-03-22 07:00:00,11.0,8.0,-100.00,North,-999,-999.0,-999.0,90,-99.99,,,-99.99,,2013-03-22 13:00:00,
2013-03-22 07:32:00,11.0,8.0,-100.00,North,-999,-999.0,-999.0,90,-99.99,,,-99.99,,2013-03-22 13:32:00,
2013-03-22 07:42:00,11.0,8.0,-100.00,North,-999,-999.0,-999.0,90,-99.99,,,-99.99,,2013-03-22 13:42:00,
2013-03-22 07:52:00,11.0,8.0,-100.00,North,-999,-999.0,-999.0,90,-99.99,,,-99.99,,2013-03-22 13:52:00,
2013-03-22 08:00:00,11.0,9.0,-100.00,North,-999,-999.0,-999.0,89,-99.99,,,-99.99,,2013-03-22 14:00:00,
2013-03-22 08:32:00,11.0,9.0,-100.00,North,-999,-999.0,-999.0,89,-99.99,,,-99.99,,2013-03-22 14:32:00,
2013-03-22 08:43:00,11.0,9.0,-100.00,North,-999,-999.0,-999.0,89,-99.99,,,-99.99,,2013-03-22 14:43:00,
2013-03-22 08:52:00,11.0,9.0,-100.00,North,-999,-999.0,-999.0,89,-99.99,,,-99.99,,2013-03-22 14:52:00,
2013-03-22 09:00:00,13.0,10.0,-100.00,North,-999,-999.0,-999.0,88,-99.99,,,-99.99,,2013-03-22 15:00:00,
2013-03-22 09:33:00,13.0,10.0,-100.00,North,-999,-999.0,-999.0,88,-99.99,,,-99.99,,2013-03-22 15:33:00,
2013-03-22 09:43:00,13.0,10.0,-100.00,North,-999,-999.0,-999.0,88,-99.99,,,-99.99,,2013-03-22 15:43:00,
2013-03-22 09:52:00,13.0,10.0,-100.00,North,-999,-999.0,-999.0,88,-99.99,,,-99.99,,2013-03-22 15:52:00,
2013-03-22 10:00:00,13.0,11.0,-100.00,North,-999,-999.0,-999.0,88,-99.99,,,-99.99,,2013-03-22 16:00:00,
2013-03-22 10:32:00,13.0,11.0,-100.00,North,-999,-999.0,-999.0,88,-99.99,,,-99.99,,2013-03-22 16:32:00,
2013-03-22 10:42:00,13.0,11.0,-100.00,North,-999,-999.0,-999.0,88,-99.99,,,-99.99,,2013-03-22 16:42:00,
2013-03-22 10:52:00,13.0,11.0,-100.00,North,-999,-999.0,-999.0,88,-99.99,,,-99.99,,2013-03-22 16:52:00,
2013-03-22 11:00:00,14.0,10.0,-100.00,North,-999,-999.0,-999.0,85,-99.99,,,-99.99,,2013-03-22 17:00:00,
2013-03-22 11:33:00,14.0,10.0,-100.00,North,-999,-999.0,-999.0,85,-99.99,,,-99.99,,2013-03-22 17:33:00,
2013-03-22 11:42:00,14.0,10.0,-100.00,North,-999,-999.0,-999.0,85,-99.99,,,-99.99,,2013-03-22 17:42:00,
2013-03-22 11:52:00,14.0,10.0,-100.00,North,-999,-999.0,-999.0,85,-99.99,,,-99.99,,2013-03-22 17:52:00,
2013-03-22 12:00:00,15.0,11.0,-100.00,North,-999,-999.0,-999.0,84,-99.99,,,-99.99,,2013-03-22 18:00:00,
2013-03-22 12:33:00,15.0,11.0,-100.00,North,-999,-999.0,-999.0,84,-99.99,,,-99.99,,2013-03-22 18:33:00,
2013-03-22 12:42:00,15.0,11.0,-100.00,North,-999,-999.0,-999.0,84,-99.99,,,-99.99,,2013-03-22 18:42:00,
2013-03-22 12:52:00,15.0,11.0,-100.00,North,-999,-999.0,-999.0,84,-99.99,,,-99.99,,2013-03-22 18:52:00,
2013-03-22 14:00:00,11.0,6.0,-100.00,North,-999,-999.0,-999.0,78,-99.99,,,-99.99,,2013-03-22 20:00:00,
2013-03-22 14:32:00,11.0,6.0,-100.00,North,-999,-999.0,-999.0,78,-99.99,,,-99.99,,2013-03-22 20:32:00,
2013-03-22 14:43:00,11.0,6.0,-100.00,North,-999,-999.0,-999.0,78,-99.99,,,-99.99,,2013-03-22 20:43:00,
2013-03-22 14:52:00,11.0,6.0,-100.00,North,-999,-999.0,-999.0,78,-99.99,,,-99.99,,2013-03-22 20:52:00,
2013-03-22 15:00:00,11.0,3.0,-100.00,North,-999,-999.0,-999.0,70,-99.99,,,-99.99,,2013-03-22 21:00:00,
2013-03-22 15:33:00,11.0,3.0,-100.00,North,-999,-999.0,-999.0,70,-99.99,,,-99.99,,2013-03-22 21:33:00,
2013-03-22 15:43:00,11.0,3.0,-100.00,North,-999,-999.0,-999.0,70,-99.99,,,-99.99,,2013-03-22 21:43:00,
2013-03-22 15:53:00,11.0,3.0,-100.00,North,-999,-999.0,-999.0,70,-99.99,,,-99.99,,2013-03-22 21:53:00,
2013-03-22 16:00:00,11.0,5.0,-100.00,North,-999,-999.0,-999.0,74,-99.99,,,-99.99,,2013-03-22 22:00:00,
2013-03-22 16:32:00,11.0,5.0,-100.00,North,-999,-999.0,-999.0,74,-99.99,,,-99.99,,2013-03-22 22:32:00,
2013-03-22 16:43:00,11.0,5.0,-100.00,North,-999,-999.0,-999.0,74,-99.99,,,-99.99,,2013-03-22 22:43:00,
2013-03-22 16:52:00,11.0,5.0,-100.00,North,-999,-999.0,-999.0,74,-99.99,,,-99.99,,2013-03-22 22:52:00,
2013-03-22 17:00:00,9.0,5.0,-100.00,North,-999,-999.0,-999.0,82,-99.99,,,-99.99,,2013-03-22 23:00:00,
2013-03-22 17:32:00,9.0,5.0,-100.00,North,-999,-999.0,-999.0,82,-99.99,,,-99.99,,2013-03-22 23:32:00,
2013-03-22 17:42:00,9.0,5.0,-100.00,North,-999,-999.0,-999.0,82,-99.99,,,-99.99,,2013-03-22 23:42:00,
2013-03-22 17:52:00,9.0,5.0,-100.00,North,-999,-999.0,-999.0,82,-99.99,,,-99.99,,2013-03-22 23:52:00,
2013-03-22 18:00:00,8.0,4.0,-100.00,North,-999,-999.0,-999.0,84,-99.99,,,-99.99,,2013-03-23 00:00:00,
2013-03-22 18:33:00,8.0,4.0,-100.00,North,-999,-999.0,-999.0,84,-99.99,,,-99.99,,2013-03-23 00:33:00,
2013-03-22 18:42:00,8.0,4.0,-100.00,North,-999,-999.0,-999.0,84,-99.99,,,-99.99,,2013-03-23 00:42:00,
2013-03-22 18:52:00,8.0,4.0,-100.00,North,-999,-999.0,-999.0,84,-99.99,,,-99.99,,2013-03-23 00:52:00,
2013-03-22 19:00:00,8.0,5.0,-100.00,North,-999,-999.0,-999.0,89,-99.99,,,-99.99,,2013-03-23 01:00:00,
2013-03-22 19:32:00,8.0,5.0,-100.00,North,-999,-999.0,-999.0,89,-99.99,,,-99.99,,2013-03-23 01:32:00,
2013-03-22 19:43:00,8.0,5.0,-100.00,North,-999,-999.0,-999.0,89,-99.99,,,-99.99,,2013-03-23 01:43:00,
2013-03-22 19:52:00,8.0,5.0,-100.00,North,-999,-999.0,-999.0,89,-99.99,,,-99.99,,2013-03-23 01:52:00,
2013-03-22 20:00:00,7.0,3.0,-100.00,North,-999,-999.0,-999.0,83,-99.99,,,-99.99,,2013-03-23 02:00:00,
2013-03-22 20:32:00,7.0,3.0,-100.00,North,-999,-999.0,-999.0,83,-99.99,,,-99.99,,2013-03-23 02:32:00,
2013-03-22 20:42:00,7.0,3.0,-100.00,North,-999,-999.0,-999.0,83,-99.99,,,-99.99,,2013-03-23 02:42:00,
2013-03-22 20:52:00,7.0,3.0,-100.00,North,-999,-999.0,-999.0,83,-99.99,,,-99.99,,2013-03-23 02:52:00,
2013-03-22 21:00:00,7.0,1.0,-100.00,North,-999,-999.0,-999.0,74,-99.99,,,-99.99,,2013-03-23 03:00:00,
2013-03-22 21:33:00,7.0,1.0,-100.00,North,-999,-999.0,-999.0,74,-99.99,,,-99.99,,2013-03-23 03:33:00,
2013-03-22 21:43:00,7.0,1.0,-100.00,North,-999,-999.0,-999.0,74,-99.99,,,-99.99,,2013-03-23 03:43:00,
2013-03-22 21:53:00,7.0,1.0,-100.00,North,-999,-999.0,-999.0,74,-99.99,,,-99.99,,2013-03-23 03:53:00,
2013-03-22 22:00:00,7.0,4.0,-100.00,North,-999,-999.0,-999.0,87,-99.99,,,-99.99,,2013-03-23 04:00:00,
2013-03-22 22:33:00,7.0,4.0,-100.00,North,-999,-999.0,-999.0,87,-99.99,,,-99.99,,2013-03-23 04:33:00,
2013-03-22 22:43:00,7.0,4.0,-100.00,North,-999,-999.0,-999.0,87,-99.99,,,-99.99,,2013-03-23 04:43:00,
2013-03-22 22:53:00,7.0,4.0,-100.00,North,-999,-999.0,-999.0,87,-99.99,,,-99.99,,2013-03-23 04:53:00,
2013-03-22 23:00:00,7.0,4.0,-100.00,North,-999,-999.0,-999.0,86,-99.99,,,-99.99,,2013-03-23 05:00:00,
2013-03-22 23:33:00,7.0,4.0,-100.00,North,-999,-999.0,-999.0,86,-99.99,,,-99.99,,2013-03-23 05:33:00,
2013-03-22 23:42:00,7.0,4.0,-100.00,North,-999,-999.0,-999.0,86,-99.99,,,-99.99,,2013-03-23 05:42:00,
2013-03-22 23:52:00,7.0,4.0,-100.00,North,-999,-999.0,-999.0,86,-99.99,,,-99.99,,2013-03-23 05:52:00,